Hors Challenge

Le Trail Du Hérou - Nadrin (16.0 km)

samedi 07 septembre 2019

Vous pouvez trouver Le classement original sur : https://www.betrail.run/race
 
LE TRAIL DU HÉROU - NADRIN
DISTANCE : 16.00 km
samedi 07 septembre 2019
 
Place NOM Catégorie Pl/cat temps temps/km Vitesse
01:00:00            
1 BUCCI NICOLABE HOMME 1 01:25:06 05:19 11.28
2 GOUBAU JOHANBE HOMME 2 01:26:50 05:26 11.06
3 TRIAILLE THIBAULTBE HOMME 3 01:31:00 05:41 10.55
4 CHARLIER JULIENBE HOMME 4 01:31:24 05:43 10.50
5 TRILLET DENISBE HOMME 5 01:34:24 05:54 10.17
6 GEROMBOUX ARNAUDBE HOMME 6 01:39:35 06:13 9.64
7 VERTE PATRICK HOMME 7 01:39:40 06:14 9.63
8 GARDIER REMY HOMME 8 01:40:08 06:15 9.59
9 LAMBERT LUDOVIC HOMME 9 01:46:58 06:41 8.97
10 BRUGGEMAN PIETER JAN HOMME 10 01:48:55 06:48 8.81
11 DEWILDE CHARLOTTEBE DAME 1 01:53:45 07:07 8.44
12 LHERMITTE IGOR HOMME 11 01:56:11 07:16 8.26
13 HEIRBAUT MAARTENBE HOMME 12 01:56:43 07:18 8.23
14 LAMOUR JEAN HOMME 13 01:57:01 07:19 8.20
15 PORRINI JEREMYBE HOMME 14 01:57:20 07:20 8.18
16 DUJARDIN GAUTHIER HOMME 15 01:59:00 07:26 8.07
17 LAHAYE PIERRE HOMME 16 02:01:39 07:36 7.89
18 PREVOT JULIENBE HOMME 17 02:02:38 07:40 7.83
19 FABRY XAVIER HOMME 18 02:02:47 07:40 7.82
20 ENTREPRISES WANSART JC HOMME 19 02:03:28 07:43 7.78
21 COMPERE CAMILLE DAME 2 02:03:29 07:43 7.77
22 ZLOTOROWIEZ DAMIEN HOMME 20 02:04:19 07:46 7.72
23 LANNERS PATRICKBE HOMME 21 02:04:36 07:47 7.70
24 THERER JULIEN HOMME 22 02:05:41 07:51 7.64
25 NOKIN XAVIER HOMME 23 02:05:59 07:52 7.62
26 VANDER HAM FABIAN HOMME 24 02:06:21 07:54 7.60
27 HERMAN GREGORYBE HOMME 25 02:06:39 07:55 7.58
28 ANTONIAZZI NICOLAS HOMME 26 02:06:40 07:55 7.58
29 DEBEN JEAN FRANCOISBE HOMME 27 02:08:50 08:03 7.45
30 HEINE LAURENT 2 HOMME 28 02:09:17 08:05 7.43
31 HORRION TIMBE HOMME 29 02:10:10 08:08 7.38
32 BRECOURT SÉBASTIEN HOMME 30 02:10:11 08:08 7.37
33 DEMELAS JULIEN HOMME 31 02:10:12 08:08 7.37
34 COLOT ANTONIN HOMME 32 02:10:43 08:10 7.34
35 DHONDT FREDERIC HOMME 33 02:12:29 08:17 7.25
36 DECKX SEPPE HOMME 34 02:13:13 08:20 7.21
37 PIROT ANAÏSBE DAME 3 02:14:07 08:23 7.16
38 BAUDOUIN JULIEN HOMME 35 02:15:22 08:28 7.09
39 DEMELENNE ANTOINE HOMME 36 02:15:32 08:28 7.08
40 JENART LAURENT HOMME 37 02:17:01 08:34 7.01
41 CLEMENS MICHAELBE HOMME 38 02:17:20 08:35 6.99
42 LAMBILLON QUENTINBE HOMME 39 02:17:26 08:35 6.99
43 VAN DE WALLE EMILIEBE DAME 4 02:17:39 08:36 6.97
44 MARENNE BRUNOBE HOMME 40 02:18:28 08:39 6.93
45 MOYEN CEDRICBE HOMME 41 02:18:36 08:40 6.93
46 PAPANIKITAS MARC HOMME 42 02:18:39 08:40 6.92
47 LINDEKENS CHRISTIANBE HOMME 43 02:18:51 08:41 6.91
48 SCIASCIA NOA HOMME 44 02:19:38 08:44 6.88
49 DESERT SAMUEL HOMME 45 02:20:01 08:45 6.86
50 BIHAIN ALEXANDRA DAME 5 02:20:21 08:46 6.84
51 LEONARD THIBAULTBE HOMME 46 02:20:51 08:48 6.82
52 MINGUET BENOÎT HOMME 47 02:21:15 08:50 6.80
53 DEGEIMBRE SAN HOMME 48 02:21:46 08:52 6.77
54 GUYOT FREDERIC HOMME 49 02:22:02 08:53 6.76
55 STINCKENS TOM HOMME 50 02:22:11 08:53 6.75
56 GROGNARD REGISBE HOMME 51 02:22:31 08:54 6.74
57 SONET ALEXIS HOMME 52 02:22:37 08:55 6.73
58 COLOT GUILLAUME HOMME 53 02:22:48 08:55 6.72
59 BRIANE FREDERIC HOMME 54 02:23:03 08:56 6.71
60 MOLHAN ARNAUD HOMME 55 02:23:23 08:58 6.70
61 DIEUDONNE MICHELBE HOMME 56 02:23:38 08:59 6.68
62 MALACHE CEDRIC HOMME 57 02:23:54 09:00 6.67
63 BASTOGNE SAMUELBE HOMME 58 02:24:24 09:01 6.65
64 ALBERT MICHEL HOMME 59 02:24:27 09:02 6.65
65 MARCHAND HUGUES HOMME 60 02:24:37 09:02 6.64
66 BLANJEAN OLIVIER HOMME 61 02:24:46 09:03 6.63
67 HENRION LUDIVINE DAME 6 02:25:19 09:05 6.61
68 MANDERRIER JEAN-CLAUDEFR HOMME 62 02:25:25 09:05 6.60
69 DALLA CORTE LUDOVICBE HOMME 63 02:25:40 09:06 6.59
70 SLOOTMANS TIM HOMME 64 02:26:21 09:09 6.56
71 NYSSEN SYLVIE DAME 7 02:26:50 09:11 6.54
72 DE HEPCEE BRUNO HOMME 65 02:27:00 09:11 6.53
73 VERVIER JEROMEBE HOMME 66 02:27:30 09:13 6.51
74 CALAY NOAH HOMME 67 02:27:36 09:13 6.50
75 MARCHAL ETIENNEBE HOMME 68 02:27:40 09:14 6.50
76 JENARD GREGORY HOMME 69 02:27:59 09:15 6.49
77 LAFFINEUR AMAURY HOMME 70 02:28:27 09:17 6.47
78 NUTAL OLIVIER HOMME 71 02:28:41 09:18 6.46
79 DEPLUS STEVE HOMME 72 02:29:07 09:19 6.44
80 MARTHOZ DAVID HOMME 73 02:29:28 09:20 6.42
81 BERREWAERTS ETIENNE HOMME 74 02:29:42 09:21 6.41
82 GODEFROID GUILLAUMEBE HOMME 75 02:29:53 09:22 6.40
83 MASSON VINCENTBE HOMME 76 02:29:56 09:22 6.40
84 GUILLAUME PIERRE HOMME 77 02:30:02 09:23 6.40
85 CHABOTEAUX CÉDRICBE HOMME 78 02:30:29 09:24 6.38
86 LETAWE PHILIPPE HOMME 79 02:31:15 09:27 6.35
87 LAPY FRANÇOISBE HOMME 80 02:31:32 09:28 6.34
88 DE NEEF KRISTOF HOMME 81 02:32:12 09:31 6.31
89 CREVE ARNO HOMME 82 02:33:23 09:35 6.26
90 FABIE DAVID HOMME 83 02:33:28 09:35 6.26
91 TORDOIR ERIC HOMME 84 02:34:43 09:40 6.20
92 DESRUES FABIENFR HOMME 85 02:35:13 09:42 6.18
93 BASTOGNE JONATHAN HOMME 86 02:36:20 09:46 6.14
94 DE BIÈVRE YANNICK HOMME 87 02:36:22 09:46 6.14
95 COULY BENOITBE HOMME 88 02:36:35 09:47 6.13
96 BIBIAN MATHIEUFR HOMME 89 02:36:54 09:48 6.12
97 SAEY WIM HOMME 90 02:37:04 09:49 6.11
98 MAHIN JENNIFERBE DAME 8 02:37:20 09:50 6.10
99 MATHIEU CHRISTOPHEFR HOMME 91 02:37:45 09:52 6.09
100 CHEVALIER CHRISTOPHEFR HOMME 92 02:38:36 09:55 6.05
101 THIJSSEN NIELS HOMME 93 02:39:17 09:57 6.03
102 OLDEN REMCO HOMME 94 02:39:17 09:57 6.03
103 MUL RAYMOND HOMME 95 02:39:18 09:57 6.03
104 VANFLETEREN MAXIME HOMME 96 02:39:31 09:58 6.02
105 SPARIDANS GREGOR HOMME 97 02:39:59 10:00 6.00
106 DELPIERRE NICOLASFR HOMME 98 02:40:22 10:01 5.99
107 BORREMANS FREDERICBE HOMME 99 02:40:25 10:02 5.98
108 MEIS GEORGES HOMME 100 02:40:51 10:03 5.97
109 DURIEUX FRANCOIS HOMME 101 02:41:28 10:05 5.95
110 LAROCHE CHARLOTTEBE DAME 9 02:41:35 10:06 5.94
111 DUJARDIN LAETITIA DAME 10 02:41:46 10:07 5.93
112 DE HEMPTINNE DOMINIQUE HOMME 102 02:42:44 10:10 5.90
113 VINCENT CHRISTOPHE HOMME 103 02:43:05 10:12 5.89
114 FRERE ISABELLE DAME 11 02:43:45 10:14 5.86
115 BAUMANS BENOIT HOMME 104 02:46:38 10:25 5.76
116 RÉSIMONT RÉSIMONT HOMME 105 02:46:56 10:26 5.75
117 DEROOSE DAVID HOMME 106 02:47:02 10:26 5.75
118 LEMAIRE OLIVIERFR HOMME 107 02:47:26 10:28 5.73
119 GANHY FREDY HOMME 108 02:47:50 10:29 5.72
120 PRESER FREDERICBE HOMME 109 02:47:51 10:29 5.72
121 BEUN MAGALI DAME 12 02:49:05 10:34 5.68
122 DEPETTER KIM DAME 13 02:49:08 10:34 5.68
123 AFFRE ROXANEFR DAME 14 02:49:31 10:36 5.66
124 LE MAIRE REGINALD HOMME 110 02:50:29 10:39 5.63
125 DAOUST JEAN MARIE HOMME 111 02:50:47 10:40 5.62
126 GILOT LAËTITIA DAME 15 02:51:23 10:43 5.60
127 DE VROEDE NADINE DAME 16 02:53:14 10:50 5.54
128 THOMAS VALERIE DAME 17 02:53:24 10:50 5.54
129 PARISSE CHRISTIANBE HOMME 112 02:53:27 10:50 5.53
130 HUBERMONT FABIEN HOMME 113 02:53:48 10:52 5.52
131 SAINGERY MAGALI DAME 18 02:54:03 10:53 5.52
132 LESPAGNARD NICOLAS HOMME 114 02:54:11 10:53 5.51
133 JACQUES LIONELBE HOMME 115 02:55:08 10:57 5.48
134 PEETERS FRED HOMME 116 02:55:44 10:59 5.46
135 SAEY GERT HOMME 117 02:55:49 10:59 5.46
136 VIERIN JEAN BAPTISTE HOMME 118 02:56:41 11:03 5.43
137 CAILLAT YANNICKFR HOMME 119 02:58:29 11:09 5.38
138 PRAET JONIBE DAME 19 02:58:31 11:09 5.38
139 FRANCK PEP HOMME 120 02:58:46 11:10 5.37
140 FRANCK NATHALIEBE DAME 20 02:58:46 11:10 5.37
141 VAN INGELGEM GREGORY HOMME 121 02:59:19 11:12 5.35
142 DEVOLDER ERIC HOMME 122 02:59:19 11:12 5.35
143 FALQUE PATRICKFR HOMME 123 02:59:37 11:14 5.34
144 HORENT DAVID DAME 21 03:00:29 11:17 5.32
145 MA PHUOC FLORENCE DAME 22 03:01:15 11:20 5.30
146 THOMAS OPHELIE DAME 23 03:01:18 11:20 5.30
147 DUPUIS LEON MARIEBE HOMME 124 03:02:45 11:25 5.25
148 WAUTERS INGRID DAME 24 03:02:47 11:25 5.25
149 WILVERS FRANÇOISBE HOMME 125 03:04:18 11:31 5.21
150 BAUGNIET DAMIENBE HOMME 126 03:04:22 11:31 5.21
151 LENAERTS MAUD DAME 25 03:04:56 11:33 5.19
152 BERREWAERTS FLORENCE DAME 26 03:04:57 11:34 5.19
153 SHILTZ CHRISTOPHE HOMME 127 03:06:00 11:37 5.16
154 JACQUES MARIONBE DAME 27 03:06:25 11:39 5.15
155 HEUSLING FLORENCE DAME 28 03:06:38 11:40 5.14
156 PLECKSPAEN PHILIPPE HOMME 128 03:06:51 11:41 5.14
157 GOEDHUYS DENIS HOMME 129 03:06:57 11:41 5.14
158 KEYSER CHRISTIAN HOMME 130 03:07:28 11:43 5.12
159 RUBAY OLIVIER DAME 29 03:07:50 11:44 5.11
160 DERKENNE VIRGINIE DAME 30 03:08:12 11:46 5.10
161 BRIANNE ROMIN HOMME 131 03:08:24 11:46 5.10
162 GOBELS ROCH HOMME 132 03:08:48 11:48 5.08
163 MOREAU CHRISTINEFR DAME 31 03:08:50 11:48 5.08
164 AGBENOU TÊKO HOMME 133 03:09:02 11:49 5.08
165 CORBIAUX CHRISTOPHEBE HOMME 134 03:09:41 11:51 5.06
166 LAMBERTZ MARIE DAME 32 03:09:51 11:52 5.06
167 RIXHON SYLVIEBE DAME 33 03:09:52 11:52 5.06
168 GIARELLI VALERIEBE DAME 34 03:10:01 11:53 5.05
169 THEIS GREGORY HOMME 135 03:10:02 11:53 5.05
170 WIGGELINKHUIJSEN GIJSBERT HOMME 136 03:10:11 11:53 5.05
171 VAN DE WATER ROBBERT HOMME 137 03:10:14 11:53 5.05
172 SIMONS MATHIEU HOMME 138 03:10:16 11:53 5.05
173 URDIAIN SONIA DAME 35 03:10:21 11:54 5.04
174 LABY STEPHANE HOMME 139 03:10:21 11:54 5.04
175 STAQUET LAURENCE DAME 36 03:10:23 11:54 5.04
176 BALAND PASCAL HOMME 140 03:11:17 11:57 5.02
177 KECH RUDY HOMME 141 03:11:19 11:57 5.02
178 GERARD FRANCOISBE HOMME 142 03:11:33 11:58 5.01
179 BLANPAIN BENOIT HOMME 143 03:11:35 11:58 5.01
180 LEONARD ETIENNE HOMME 144 03:11:35 11:58 5.01
181 JACQUES FREDERIC HOMME 145 03:11:35 11:58 5.01
182 COSSEMENT ALEXISBE HOMME 146 03:11:51 11:59 5.00
183 BOUBKER MOHAMMED HOMME 147 03:12:10 12:01 5.00
184 ANGELY GAETAN HOMME 148 03:13:09 12:04 4.97
185 DIERCKX GRÉGORY HOMME 149 03:13:38 12:06 4.96
186 VERGHOTE ANTOINE HOMME 150 03:13:39 12:06 4.96
187 BEGUIN BENOIT HOMME 151 03:13:54 12:07 4.95
188 MORSIAU VÉRONIQUEBE DAME 37 03:14:33 12:10 4.93
189 DUBILLARD REMYFR HOMME 152 03:15:21 12:13 4.91
190 BAUDHUIN CECILE DAME 38 03:16:04 12:15 4.90
191 GIOT GERALDINEBE DAME 39 03:16:05 12:15 4.90
192 SCHRANZ PASCALE DAME 40 03:16:17 12:16 4.89
193 PURAYE ALAINBE HOMME 153 03:18:13 12:23 4.84
194 ABRAHAM LUC HOMME 154 03:18:29 12:24 4.84
195 GEORGES XAVIERBE HOMME 155 03:19:15 12:27 4.82
196 BOCK BENOIT HOMME 156 03:20:27 12:32 4.79
197 HERMAN STEPHENFR HOMME 157 03:20:47 12:33 4.78
198 CAMPODONICO NICOLASFR HOMME 158 03:21:10 12:34 4.77
199 SOLPASSO SANTE HOMME 159 03:22:33 12:40 4.74
200 RIVART ISABELLEBE DAME 41 03:22:56 12:41 4.73
201 VAN CAUTEREN KAREN DAME 42 03:23:08 12:42 4.73
202 BRIEUC ROBERT HOMME 160 03:23:16 12:42 4.72
203 VERSTRAETE ELISE DAME 43 03:25:38 12:51 4.67
204 LAMBIN VALÉRIE DAME 44 03:27:23 12:58 4.63
205 GIRS CORALINE DAME 45 03:30:31 13:09 4.56
206 OLIVIER PIERRE ALEXANDRE HOMME 161 03:30:37 13:10 4.56
207 VAN DER VAART WILLEMBE HOMME 162 03:30:58 13:11 4.55
208 KUPPER ROLAND HOMME 163 03:31:20 13:13 4.54
209 SOUMOY PHILIPPE HOMME 164 03:31:22 13:13 4.54
210 ROOIJAKKERS HANS HOMME 165 03:32:18 13:16 4.52
211 DEFENSE CHRISTOPHE HOMME 166 03:36:25 13:32 4.44
212 DEKNOP MICHEL HOMME 167 03:38:57 13:41 4.38
213 MOELDERS WILHELM HOMME 168 03:40:30 13:47 4.35
214 VOETMANN MANFRED HOMME 169 03:40:31 13:47 4.35
215 ZANETTE TATIANAFR DAME 46 03:40:34 13:47 4.35
216 LASSINE CEDRICBE HOMME 170 03:41:09 13:49 4.34
217 CLAISSE ANNE PASCALE DAME 47 03:42:54 13:56 4.31
218 ATTENBOROUGH STEVE HOMME 171 03:43:17 13:57 4.30
219 GODART DENIS HOMME 172 03:43:20 13:57 4.30
220 ORBAN MAICHABE DAME 48 03:47:14 14:12 4.22
221 BOTTELDOORN STEPHANE HOMME 173 03:47:15 14:12 4.22
222 CIJFFERS ONNO HOMME 174 03:47:34 14:13 4.22
223 LAPIÈRE JOËL HOMME 175 03:47:49 14:14 4.21
224 SOKAY THOMASBE HOMME 176 03:48:36 14:17 4.20
225 VINCENT SOPHIEBE DAME 49 03:48:36 14:17 4.20
226 DEVOOGHT MARCEL HOMME 177 03:49:29 14:21 4.18
227 PY ANGELIQUEFR DAME 50 03:49:32 14:21 4.18
228 MAAGD JOLANDA DAME 51 03:50:23 14:24 4.17
229 DIEDEREN ANNICK DAME 52 03:51:03 14:26 4.15
230 DAVID AUDREYFR DAME 53 03:53:24 14:35 4.11
231 VANCOLEN YANNICKBE HOMME 178 03:53:41 14:36 4.11
232 LAURENT DANIELFR HOMME 179 03:54:26 14:39 4.09
233 BOUCHARD CAROLINE DAME 54 04:06:04 15:23 3.90
234 FRIPPIAT ALIXBE DAME 55 04:06:04 15:23 3.90
235 DELHAYE FABIENNE DAME 56 04:06:05 15:23 3.90
236 LECOEUVRE VALERY HOMME 180 04:08:26 15:32 3.86
237 LECOEUVRE ANGÉLIQUE DAME 57 04:08:27 15:32 3.86
238 VAN ESCH CATHERINE DAME 58 04:13:18 15:50 3.79
239 LORIDAN BRIGITTE DAME 59 04:13:18 15:50 3.79
240 PADUART FABIENNE DAME 60 04:15:17 15:57 3.76
241 CHARLES PATRICIA DAME 61 04:15:18 15:57 3.76
242 BODELET MARYSEBE DAME 62 04:21:19 16:20 3.67
243 LAMOTTE FRANCINE DAME 63 04:21:43 16:21 3.67
244 BAZILE DJEMY HOMME 181 04:26:45 16:40 3.60
245 DE WACHTER JEAN FRANCOISBE HOMME 182 04:54:22 18:24 3.26